Time,TemperatureF,DewpointF,PressureIn,WindDirection,WindDirectionDegrees,WindSpeedMPH,WindSpeedGustMPH,Humidity,HourlyPrecipIn,Conditions,Clouds,dailyrainin,SoftwareType,DateUTC
2013-07-19 00:30:00,79.4,73.1,30.11,North,0,0.0,0.0,81,0.00,,,0.00,WUHU216HW,2013-07-19 04:30:00,
2013-07-19 00:35:00,79.4,73.1,30.11,North,0,0.0,0.0,81,0.00,,,0.00,WUHU216HW,2013-07-19 04:35:00,
2013-07-19 01:30:00,77.8,71.5,30.10,North,0,0.0,0.0,81,0.00,,,0.00,WUHU216HW,2013-07-19 05:30:00,
2013-07-19 01:35:00,77.8,71.5,30.10,North,0,0.0,0.0,81,0.00,,,0.00,WUHU216HW,2013-07-19 05:35:00,
2013-07-19 02:00:00,77.0,71.5,30.10,North,0,0.0,0.0,83,0.00,,,0.00,WUHU216HW,2013-07-19 06:00:00,
2013-07-19 02:05:00,77.0,71.5,30.10,North,0,0.0,0.0,83,0.00,,,0.00,WUHU216HW,2013-07-19 06:05:00,
2013-07-19 06:30:00,73.8,69.8,30.10,North,0,0.0,0.0,87,0.00,,,0.00,WUHU216HW,2013-07-19 10:30:00,
2013-07-19 06:35:00,73.8,69.8,30.10,North,0,0.0,0.0,87,0.00,,,0.00,WUHU216HW,2013-07-19 10:35:00,
2013-07-19 07:00:00,74.2,70.1,30.10,North,0,0.0,0.0,87,0.00,,,0.00,WUHU216HW,2013-07-19 11:00:00,
2013-07-19 07:05:00,74.2,70.1,30.10,North,0,0.0,0.0,87,0.00,,,0.00,WUHU216HW,2013-07-19 11:05:00,
2013-07-19 07:30:00,74.9,70.8,30.11,North,0,0.0,0.0,87,0.00,,,0.00,WUHU216HW,2013-07-19 11:30:00,
2013-07-19 07:35:00,74.9,70.8,30.11,North,0,0.0,0.0,87,0.00,,,0.00,WUHU216HW,2013-07-19 11:35:00,
2013-07-19 09:30:00,81.4,73.5,30.13,North,0,0.0,0.0,77,0.00,,,0.00,WUHU216HW,2013-07-19 13:30:00,
2013-07-19 09:35:00,81.4,73.5,30.13,North,0,0.0,0.0,77,0.00,,,0.00,WUHU216HW,2013-07-19 13:35:00,
2013-07-19 14:30:00,92.5,73.9,30.07,North,0,0.0,0.0,55,0.00,,,0.00,WUHU216HW,2013-07-19 18:30:00,
2013-07-19 14:35:00,92.5,73.9,30.07,North,0,0.0,0.0,55,0.00,,,0.00,WUHU216HW,2013-07-19 18:35:00,
2013-07-19 15:00:00,92.9,74.8,30.05,North,0,0.0,0.0,56,0.00,,,0.00,WUHU216HW,2013-07-19 19:00:00,
2013-07-19 15:05:00,92.9,74.8,30.05,North,0,0.0,0.0,56,0.00,,,0.00,WUHU216HW,2013-07-19 19:05:00,
2013-07-19 20:00:00,85.1,73.0,30.01,North,0,0.0,0.0,67,0.00,,,0.00,WUHU216HW,2013-07-20 00:00:00,
2013-07-19 20:05:00,85.1,73.0,30.01,North,0,0.0,0.0,67,0.00,,,0.00,WUHU216HW,2013-07-20 00:05:00,
2013-07-19 21:00:00,81.5,71.3,30.02,North,0,0.0,0.0,71,0.00,,,0.00,WUHU216HW,2013-07-20 01:00:00,
2013-07-19 21:05:00,81.5,71.3,30.02,North,0,0.0,0.0,71,0.00,,,0.00,WUHU216HW,2013-07-20 01:05:00,